Location: Bullenkuhlen
(53.7689°N, 9.7495°E)
Time: 23:11:15
(UTC+00:00)

MOS 1 Rocket - Pass Details

Date: 09 April 2020
Orbit: 614 x 830 km, 97.4° (Epoch: 03 June)

Event Time Altitude Azimuth Distance (km) Brightness Sun altitude
Rises 19:13:10 0° 16° (NNE) 3,338 7.0 -9.2°
Reaches altitude 10° 19:15:35 10° 23° (NNE) 2,422 6.2 -9.5°
Maximum altitude 19:20:49 48° 97° (E) 1,080 3.9 -10.2°
Drops below altitude 10° 19:26:04 10° 171° (S) 2,433 5.7 -10.9°
Sets 19:28:30 0° 177° (S) 3,355 6.5 -11.2°
